Showing default

OSCAR 3, 1293

Orbit data source: Space-Track

OSCAR 3, 1293 is a payload satellite owned by OSCAR (US) in LEO that was launched on Tue, 09 Mar 1965 UTC via a THOR SLV-2 AGENA D launch vehicle from the Air Force Western Test Range (AFWTR). Payload-class satellites include a variety of spacecraft equipped with specific instruments for various scientific and technological missions. These include communications satellites like Starlink; space stations such as the ISS; scientific satellites like the Hubble; Earth observation satellites from companies like Planet Labs, Umbra, and HawkEye 360; GPS; miniature CubeSats for education and research; and military/defense satellites.

Loading next visibility...
Identifier
1293, 1965-016F
Orbit
LEO
Country
Flag of USUS
Related business
Manufacturer
OSCAR
Mission
Non-operational Amateur Communications
Bus & Motor
OSCAR, Unknown motor
Mass
15 kg wet, 15 kg dry
Launch date (UTC)
1965-03-09 (60 years ago)
Launch vehicle
THOR SLV-2 AGENA D
Launch site
Air Force Western Test Range (AFWTR)
Object type
Payload
Rocket body
Debris
Shape & HBR
Box + 4 Ant, 0.7 m
Radar Cross Section
0.259 m², Medium (>0.1 m² and < 1m²)

Expand to show TLE details & history
Last TLE update: 8 hours ago

TLE from 8 hours ago
0 OSCAR 3
1 01293U 65016F   25242.88600041  .00000339  00000-0  22982-3 0  9996
2 01293  70.0750 310.4764 0016997 186.7806 173.3080 14.08179271 91214
Epoch: 2025-08-30T21:15Z
TLE epoch observation values (Epoch: 2025-08-30T21:15:50.435Z)
Latitude
0.00004°
Longitude
12.2024°
Altitude
880.17 km
Speed
7.406 km/s
True Right ascension
20h 41m 54s
True Declination
0° 00' 00"
Sunlit
Object was in full shadow at epoch
Visualization orbit readout
Latitude
Unknown
Longitude
Unknown
Altitude
Unknown
Speed
Unknown
Apparent Right ascension
Unknown
Apparent Declination
Unknown
Sunlit
N/A
Visualization observer readout
Local Sidereal Time
20:26:20
Azimuth
Unknown
Elevation
Unknown
Doppler factor
Unknown
Orbital elements
Apogee altitude
875.942 km
Perigee altitude
851.324 km
Semi-major axis
7,241.77 km
Eccentricity
0.0017
Inclination
70.075°
RAAN
310.4764°
Arg. of periapsis
186.7806°
True anomaly
173.33065°
Mean anomaly
173.308°
Eccentric anomaly
173.31933°
Mean motion
3.52189 °/min
Orbital period
102.22 mins
BSTAR
0.00022982
Loading maneuver chart data...
Computing Atmospheric mass density...
Loading historical data...
Loading historical data...
Loading historical data...
Loading historical data...
Loading historical data...
Loading historical data...
Loading historical data...

Documentation

Showing up to 5 results
|